This is the latest recevied weather packets stored in our database for station/object IW9CSJ-13. If no packets are shown the sender has not sent any weather packets the latest 1 day(s).
| Time | Temp. | Humidity | Pressure | Rain* | Wind** | Luminosity | Snow |
|---|---|---|---|---|---|---|---|
| 1777980920 | 18.33° C | 73% | 1016 hPa | 0 mm | 0.89 m/s, 67° | - | - |
| 1777980619 | 18.89° C | 72% | 1016 hPa | 0 mm | 1.34 m/s, 135° | - | - |
| 1777980319 | 18.89° C | 73% | 1016 hPa | 0 mm | 0.89 m/s, 73° | - | - |
| 1777980020 | 18.89° C | 73% | 1016.1 hPa | 0 mm | 1.34 m/s, 38° | - | - |
| 1777979721 | 18.89° C | 73% | 1016 hPa | 0 mm | 1.34 m/s, 144° | - | - |
| 1777979421 | 18.89° C | 73% | 1016 hPa | 0 mm | 1.79 m/s, 133° | - | - |
| 1777979122 | 18.89° C | 73% | 1016 hPa | 0 mm | 2.68 m/s, 138° | - | - |
| 1777978822 | 18.89° C | 73% | 1015.9 hPa | 0 mm | 1.34 m/s, 118° | - | - |
| 1777978521 | 18.89° C | 73% | 1015.9 hPa | 0 mm | 1.34 m/s, 118° | - | - |
| 1777978219 | 18.89° C | 73% | 1016 hPa | 0 mm | 1.79 m/s, 76° | - | - |
| 1777977621 | 18.89° C | 73% | 1016 hPa | 0 mm | 2.24 m/s, 125° | - | - |
| 1777977319 | 18.89° C | 72% | 1016.1 hPa | 0 mm | 0.89 m/s, 121° | - | - |
| 1777977019 | 18.89° C | 72% | 1016 hPa | 0 mm | 1.34 m/s, 74° | - | - |
| 1777976718 | 18.89° C | 72% | 1016 hPa | 0 mm | 1.34 m/s, 74° | - | - |
| 1777976422 | 18.89° C | 73% | 1016 hPa | 0 mm | 1.79 m/s, 122° | - | - |
| 1777976121 | 18.89° C | 74% | 1016 hPa | 0 mm | 1.34 m/s, 94° | - | - |
| 1777975821 | 18.89° C | 73% | 1016.1 hPa | 0 mm | 1.34 m/s, 136° | - | - |
| 1777975519 | 18.89° C | 74% | 1016.1 hPa | 0 mm | 1.79 m/s, 127° | - | - |
| 1777975219 | 18.89° C | 74% | 1016.1 hPa | 0 mm | 1.34 m/s, 109° | - | - |
| 1777974921 | 18.89° C | 73% | 1016.2 hPa | 0 mm | 1.34 m/s, 129° | - | - |
| 1777974619 | 18.89° C | 73% | 1016.2 hPa | 0 mm | 1.79 m/s, 134° | - | - |
| 1777974319 | 18.89° C | 73% | 1016.3 hPa | 0 mm | 1.79 m/s, 131° | - | - |
| 1777974022 | 18.33° C | 73% | 1016.3 hPa | 0 mm | 1.34 m/s, 93° | - | - |
| 1777973721 | 18.33° C | 73% | 1016.2 hPa | 0 mm | 1.79 m/s, 119° | - | - |
| 1777973422 | 18.89° C | 73% | 1016.2 hPa | 0 mm | 0.89 m/s, 125° | - | - |
* Rain latest hour (hover to see other rain measurements)
** Current wind speed in m/s (hover to see current wind gust speed)